DW0664 Weather Reports


Display with metric or nautical units.
time (UTC)temp
F
wind
direction
speed
MPH
gust
MPH
rain 1hr
in
rain 24hr
in
rain mn
in
humidity
%
barometer
mb
20260505014203 75 79 0.0 4.0 0.00 0.00 0.00 74 1011.2
20260505013700 76 78 2.0 3.0 0.00 0.00 0.00 73 1011.0
20260505013157 76 66 0.0 2.0 0.00 0.00 0.00 73 1011.3
20260505012655 76 105 2.0 3.0 0.00 0.00 0.00 72 1011.0
20260505012152 76 59 0.0 3.0 0.00 0.00 0.00 72 1011.2
20260505011652 76 106 1.0 2.0 0.00 0.00 0.00 71 1011.2
20260505011150 77 71 3.0 4.0 0.00 0.00 0.00 70 1011.1
20260505010645 77 106 2.0 4.0 0.00 0.00 0.00 70 1011.1
20260505010142 77 152 1.0 3.0 0.00 0.00 0.00 70 1010.9
20260505005638 77 71 0.0 2.0 0.00 0.00 0.00 70 1011.1
20260505005135 77 129 1.0 2.0 0.00 0.00 0.00 70 1010.9
20260505004632 77 65 1.0 1.0 0.00 0.00 0.00 70 1011.0
20260505004129 77 71 2.0 7.0 0.00 0.00 0.00 69 1011.1
20260505003626 77 86 1.0 6.0 0.00 0.00 0.00 69 1011.2
20260505003123 78 146 3.0 4.0 0.00 0.00 0.00 69 1011.0
20260505002619 78 77 1.0 2.0 0.00 0.00 0.00 68 1011.2
20260505002118 78 127 2.0 8.0 0.00 0.00 0.00 68 1011.4
20260505001614 78 100 1.0 2.0 0.00 0.00 0.00 68 1011.1
20260505001112 78 134 1.0 2.0 0.00 0.00 0.00 68 1011.3
20260505000609 78 84 0.0 1.0 0.00 0.00 0.00 67 1011.1
20260505000107 78 81 1.0 3.0 0.00 0.00 0.00 66 1011.1
20260504235603 79 73 1.0 3.0 0.00 0.00 0.00 66 1011.3
20260504235059 79 137 2.0 3.0 0.00 0.00 0.00 66 1011.4
20260504234557 79 97 1.0 6.0 0.00 0.00 0.00 65 1011.3
20260504234054 79 79 1.0 3.0 0.00 0.00 0.00 65 1011.4
20260504233549 79 73 1.0 3.0 0.00 0.00 0.00 64 1011.4
20260504233046 79 128 1.0 4.0 0.00 0.00 0.00 64 1011.4
20260504232543 79 51 2.0 3.0 0.00 0.00 0.00 63 1011.5
20260504232041 80 119 3.0 7.0 0.00 0.00 0.00 62 1011.3
20260504231537 80 114 3.0 6.0 0.00 0.00 0.00 62 1011.4
20260504231033 81 116 2.0 6.0 0.00 0.00 0.00 62 1011.4
20260504230530 81 173 3.0 6.0 0.00 0.00 0.00 60 1011.4
20260504230029 82 72 2.0 6.0 0.00 0.00 0.00 60 1011.6
20260504225525 82 59 1.0 4.0 0.00 0.00 0.00 60 1011.7
20260504225022 81 27 3.0 6.0 0.00 0.00 0.00 60 1011.6
20260504224519 81 115 1.0 4.0 0.00 0.00 0.00 60 1011.7
20260504224016 81 112 1.0 2.0 0.00 0.00 0.00 60 1011.8
20260504223513 81 77 1.0 7.0 0.00 0.00 0.00 60 1011.9
20260504223009 82 99 5.0 9.0 0.00 0.00 0.00 57 1011.9
20260504222506 83 74 0.0 6.0 0.00 0.00 0.00 59 1011.9
20260504222003 82 94 0.0 3.0 0.00 0.00 0.00 59 1011.6
20260504221500 81 99 2.0 3.0 0.00 0.00 0.00 60 1011.7
20260504220957 81 64 2.0 8.0 0.00 0.00 0.00 60 1011.8
20260504220453 81 86 2.0 4.0 0.00 0.00 0.00 60 1012.0
20260504215950 81 102 2.0 4.0 0.00 0.00 0.00 59 1012.1
20260504215447 80 72 1.0 4.0 0.00 0.00 0.00 62 1012.2
20260504214944 80 73 1.0 2.0 0.00 0.00 0.00 61 1012.0
20260504214440 81 111 2.0 6.0 0.00 0.00 0.00 59 1012.2
20260504213937 81 106 2.0 6.0 0.00 0.00 0.00 58 1012.3
20260504213433 81 130 1.0 2.0 0.00 0.00 0.00 61 1012.5
20260504212931 81 70 0.0 6.0 0.00 0.00 0.00 59 1012.6
20260504212426 81 75 2.0 3.0 0.00 0.00 0.00 57 1012.7
20260504211924 81 117 2.0 3.0 0.00 0.00 0.00 60 1012.5
20260504211420 82 48 1.0 4.0 0.00 0.00 0.00 59 1012.7
20260504210918 82 85 1.0 2.0 0.00 0.00 0.00 58 1012.9
20260504210414 81 97 1.0 6.0 0.00 0.00 0.00 59 1012.9
20260504205912 81 154 3.0 6.0 0.00 0.00 0.00 57 1013.1
20260504205409 82 107 3.0 8.0 0.00 0.00 0.00 57 1013.0
20260504204907 82 22 1.0 3.0 0.00 0.00 0.00 58 1013.3
20260504204405 83 97 1.0 4.0 0.00 0.00 0.00 55 1013.3
20260504203905 82 75 0.0 3.0 0.00 0.00 0.00 58 1013.6
20260504203401 83 73 0.0 2.0 0.00 0.00 0.00 57 1013.5
20260504202857 83 73 1.0 2.0 0.00 0.00 0.00 57 1013.6
20260504202354 83 66 0.0 2.0 0.00 0.00 0.00 59 1013.4
20260504201850 84 101 2.0 4.0 0.00 0.00 0.00 55 1013.6
20260504201348 83 100 1.0 2.0 0.00 0.00 0.00 56 1013.9
20260504200845 83 138 3.0 3.0 0.00 0.00 0.00 57 1013.9
20260504200342 83 153 1.0 2.0 0.00 0.00 0.00 59 1014.1
20260504195838 82 110 2.0 6.0 0.00 0.00 0.00 57 1014.3
20260504195334 82 52 2.0 4.0 0.00 0.00 0.00 54 1014.3
20260504194831 82 62 1.0 3.0 0.00 0.00 0.00 57 1014.4
20260504194327 82 114 3.0 6.0 0.00 0.00 0.00 55 1014.4
20260504193823 82 42 1.0 6.0 0.00 0.00 0.00 56 1014.4
20260504193321 82 79 1.0 2.0 0.00 0.00 0.00 58 1014.7
20260504192819 82 132 0.0 2.0 0.00 0.00 0.00 57 1014.4
20260504192317 82 144 1.0 3.0 0.00 0.00 0.00 56 1014.6
20260504191815 81 114 1.0 2.0 0.00 0.00 0.00 56 1014.7
20260504191312 81 80 1.0 8.0 0.00 0.00 0.00 57 1014.7
20260504190808 82 86 1.0 3.0 0.00 0.00 0.00 55 1014.5
20260504190304 80 4 1.0 1.0 0.00 0.00 0.00 58 1014.8
20260504185800 81 126 2.0 4.0 0.00 0.00 0.00 56 1014.8
20260504185258 80 60 1.0 1.0 0.00 0.00 0.00 57 1015.0
20260504184754 81 67 1.0 4.0 0.00 0.00 0.00 58 1014.9
20260504184249 82 53 1.0 2.0 0.00 0.00 0.00 56 1015.3
20260504183745 82 70 2.0 3.0 0.00 0.00 0.00 55 1015.4
20260504183242 81 101 1.0 4.0 0.00 0.00 0.00 55 1015.4
20260504182741 81 252 1.0 7.0 0.00 0.00 0.00 56 1015.4
20260504182238 82 244 2.0 2.0 0.00 0.00 0.00 55 1015.5
20260504181735 81 109 1.0 3.0 0.00 0.00 0.00 55 1015.6
20260504181232 79 62 0.0 6.0 0.00 0.00 0.00 58 1015.5
20260504180731 80 124 2.0 8.0 0.00 0.00 0.00 56 1015.9
20260504180230 81 78 1.0 3.0 0.00 0.00 0.00 56 1015.8
20260504175727 81 77 3.0 6.0 0.00 0.00 0.00 55 1015.8
20260504175223 81 81 3.0 4.0 0.00 0.00 0.00 56 1016.1
20260504174721 80 87 4.0 4.0 0.00 0.00 0.00 56 1015.9
20260504174219 80 55 1.0 4.0 0.00 0.00 0.00 57 1016.0
20260504173715 79 84 1.0 2.0 0.00 0.00 0.00 60 1016.2
20260504173213 79 148 2.0 4.0 0.00 0.00 0.00 58 1016.1
20260504172709 78 80 0.0 8.0 0.00 0.00 0.00 60 1016.1
20260504172205 78 59 2.0 6.0 0.00 0.00 0.00 58 1016.3
20260504171702 78 70 0.0 2.0 0.00 0.00 0.00 64 1016.3
20260504171159 78 90 2.0 7.0 0.00 0.00 0.00 60 1016.5
20260504170655 78 59 0.0 2.0 0.00 0.00 0.00 60 1016.4
20260504170153 77 65 1.0 2.0 0.00 0.00 0.00 62 1016.4
20260504160112 75 31 0.0 6.0 0.00 0.00 0.00 64 1016.9
20260504151044 74 60 1.0 3.0 0.00 0.00 0.00 65 1017.1
20260504150542 73 80 1.0 2.0 0.00 0.00 0.00 66 1017.3
20260504141008 70 187 1.0 2.0 0.00 0.00 0.00 66 1017.4
20260504140505 70 110 1.0 3.0 0.00 0.00 0.00 66 1017.2
20260504130429 63 66 0.0 1.0 0.00 0.00 0.00 73 1017.2
20260504110316 61 63 1.0 2.0 0.00 0.00 0.00 75 1016.8
20260504100234 61 87 1.0 3.0 0.00 0.00 0.00 75 1017.4
20260504081622 63 115 1.0 3.0 0.00 0.00 0.00 73 1017.5
20260504081118 63 92 1.0 2.0 0.00 0.00 0.00 73 1017.7
20260504080615 63 74 1.0 2.0 0.00 0.00 0.00 73 1017.5
20260504080111 63 69 1.0 2.0 0.00 0.00 0.00 72 1017.6
20260504050427 65 74 0.0 3.0 0.00 0.00 0.00 68 1019.7
20260504045919 65 71 0.0 3.0 0.00 0.00 0.00 69 1019.5
20260504045414 65 69 0.0 0.0 0.00 0.00 0.00 68 1019.8
20260504044911 65 126 3.0 4.0 0.00 0.00 0.00 67 1019.8
20260504044408 65 104 1.0 3.0 0.00 0.00 0.00 67 1019.9
20260504043906 66 117 1.0 2.0 0.00 0.00 0.00 67 1019.8
20260504043402 66 76 0.0 1.0 0.00 0.00 0.00 67 1019.9
20260504042900 66 69 0.0 1.0 0.00 0.00 0.00 66 1019.8
20260504042356 66 71 1.0 2.0 0.00 0.00 0.00 64 1020.1
20260504041852 66 76 0.0 2.0 0.00 0.00 0.00 64 1020.0
20260504041348 67 77 1.0 3.0 0.00 0.00 0.00 63 1020.1
20260504040845 67 57 1.0 2.0 0.00 0.00 0.00 63 1020.1
20260504040342 67 76 0.0 3.0 0.00 0.00 0.00 61 1020.1
20260504035838 68 74 0.0 2.0 0.00 0.00 0.00 60 1020.0
20260504035337 68 87 1.0 2.0 0.00 0.00 0.00 59 1020.1
20260504034833 68 137 1.0 2.0 0.00 0.00 0.00 58 1020.0
20260504034330 68 85 1.0 3.0 0.00 0.00 0.00 57 1020.0
20260504033827 69 88 0.0 4.0 0.00 0.00 0.00 55 1020.2
20260504033325 69 68 2.0 6.0 0.00 0.00 0.00 54 1019.9
20260504032821 69 76 0.0 2.0 0.00 0.00 0.00 53 1019.8
20260504032319 70 70 0.0 1.0 0.00 0.00 0.00 51 1019.6
20260504031815 69 87 1.0 2.0 0.00 0.00 0.00 51 1019.7
20260504031313 69 120 1.0 2.0 0.00 0.00 0.00 52 1019.6
20260504030809 69 72 0.0 1.0 0.00 0.00 0.00 52 1019.8
20260504030306 69 111 0.0 1.0 0.00 0.00 0.00 51 1019.6
20260504025802 69 69 0.0 0.0 0.00 0.00 0.00 52 1019.7
20260504025259 69 74 0.0 0.0 0.00 0.00 0.00 51 1019.6
20260504024756 70 73 0.0 0.0 0.00 0.00 0.00 50 1019.8
20260504024252 70 75 0.0 0.0 0.00 0.00 0.00 49 1019.6
20260504023749 70 104 1.0 4.0 0.00 0.00 0.00 48 1019.6
20260504023246 70 78 0.0 1.0 0.00 0.00 0.00 50 1019.5
20260504022742 70 75 0.0 1.0 0.00 0.00 0.00 50 1019.3
20260504022238 70 72 0.0 2.0 0.00 0.00 0.00 52 1019.4
20260504021735 70 70 0.0 0.0 0.00 0.00 0.00 51 1019.1
20260504021232 70 114 0.0 1.0 0.00 0.00 0.00 51 1019.3
20260504020729 70 72 0.0 0.0 0.00 0.00 0.00 51 1019.5
20260504020226 71 71 0.0 0.0 0.00 0.00 0.00 51 1019.4
20260504015722 71 70 0.0 2.0 0.00 0.00 0.00 50 1019.3
20260504015219 71 83 0.0 2.0 0.00 0.00 0.00 49 1019.3
20260504014714 71 74 0.0 0.0 0.00 0.00 0.00 49 1019.4